QPF
0.11 0.12 0.11 0.09 0.08 0.07 0.09 0.11 0.11 0.10 0.09 0.07 0.05 0.04 0.04 0.05 0.07 0.05 0.05 0.04 0.04 0.02 0.02 0.01 0.01 0.01 0.01 0.01 0.01 0.01 0.01 0.02 0.02 0.04 0.04 0.04 0.03 0.02
0.11 0.13 0.13 0.10 0.09 0.08 0.09 0.10 0.10 0.10 0.09 0.06 0.04 0.02 0.03 0.04 0.06 0.03 0.03 0.03 0.03 0.02 0.02 0.01 0.01 0.01 0.01 0.01 0.02 0.02 0.01 0.01 0.02 0.02 0.02 0.02 0.02 0.02
0.15 0.14 0.13 0.12 0.13 0.10 0.10 0.09 0.10 0.12 0.10 0.05 0.05 0.04 0.04 0.04 0.04 0.03 0.02 0.03 0.03 0.03 0.03 0.02 0.02 0.02 0.02 0.01 0.02 0.02 0.02 0.01 0.01 0.01 0.01 0.02 0.01 0.02
0.14 0.15 0.14 0.13 0.13 0.11 0.11 0.10 0.11 0.12 0.11 0.08 0.07 0.06 0.06 0.05 0.06 0.06 0.04 0.04 0.04 0.06 0.05 0.04 0.03 0.03 0.02 0.02 0.02 0.02 0.02 0.02 0.02 0.01 0.01 0.01 0.01 0.01
0.12 0.13 0.13 0.12 0.12 0.11 0.10 0.09 0.09 0.08 0.10 0.09 0.06 0.08 0.06 0.05 0.08 0.07 0.06 0.08 0.04 0.04 0.05 0.05 0.04 0.03 0.03 0.04 0.03 0.02 0.02 0.02 0.02 0.02 0.02 0.02 0.02 0.01
0.07 0.06 0.07 0.08 0.09 0.10 0.08 0.08 0.08 0.08 0.09 0.08 0.07 0.07 0.07 0.06 0.09 0.07 0.07 0.07 0.05 0.03 0.03 0.04 0.04 0.04 0.04 0.04 0.04 0.03 0.03 0.03 0.03 0.03 0.03 0.03 0.03 0.03
0.07 0.07 0.06 0.07 0.07 0.07 0.06 0.07 0.07 0.07 0.06 0.07 0.06 0.07 0.07 0.08 0.07 0.08 0.08 0.08 0.06 0.04 0.04 0.04 0.04 0.05 0.04 0.04 0.04 0.03 0.03 0.03 0.03 0.03 0.04 0.03 0.04 0.04
0.07 0.07 0.08 0.07 0.06 0.06 0.06 0.06 0.07 0.06 0.06 0.06 0.04 0.04 0.05 0.06 0.07 0.07 0.08 0.07 0.05 0.04 0.06 0.04 0.04 0.05 0.04 0.03 0.03 0.03 0.04 0.04 0.04 0.05 0.05 0.06 0.05 0.04
0.08 0.08 0.07 0.07 0.07 0.07 0.06 0.06 0.06 0.06 0.05 0.05 0.04 0.05 0.06 0.07 0.08 0.07 0.06 0.06 0.05 0.04 0.06 0.04 0.04 0.05 0.04 0.03 0.03 0.03 0.03 0.04 0.04 0.05 0.05 0.04 0.04 0.03
0.08 0.08 0.08 0.07 0.07 0.07 0.07 0.06 0.06 0.05 0.05 0.04 0.03 0.03 0.04 0.06 0.07 0.07 0.07 0.07 0.05 0.05 0.06 0.05 0.05 0.05 0.03 0.03 0.03 0.03 0.03 0.03 0.03 0.04 0.04 0.04 0.04 0.05
0.06 0.05 0.05 0.05 0.05 0.06 0.07 0.06 0.06 0.05 0.04 0.04 0.03 0.02 0.02 0.03 0.05 0.06 0.07 0.07 0.05 0.04 0.05 0.06 0.05 0.05 0.04 0.04 0.05 0.05 0.03 0.03 0.03 0.03 0.03 0.04 0.04 0.06
0.05 0.04 0.03 0.03 0.03 0.05 0.06 0.06 0.05 0.04 0.04 0.03 0.03 0.02 0.02 0.02 0.03 0.05 0.07 0.07 0.06 0.04 0.04 0.06 0.05 0.06 0.07 0.07 0.06 0.06 0.05 0.04 0.03 0.02 0.02 0.03 0.03 0.04
0.05 0.04 0.03 0.03 0.03 0.03 0.04 0.05 0.05 0.05 0.05 0.05 0.04 0.04 0.03 0.02 0.02 0.03 0.04 0.05 0.05 0.06 0.06 0.07 0.06 0.06 0.07 0.06 0.05 0.05 0.04 0.04 0.04 0.02 0.02 0.01 0.02 0.02
0.05 0.04 0.04 0.04 0.04 0.04 0.04 0.05 0.05 0.05 0.06 0.06 0.06 0.05 0.04 0.03 0.03 0.03 0.03 0.04 0.05 0.06 0.07 0.09 0.08 0.07 0.07 0.05 0.04 0.04 0.04 0.04 0.03 0.02 0.02 0.01 0.01 0.02
0.04 0.05 0.04 0.04 0.03 0.03 0.03 0.03 0.03 0.04 0.06 0.09 0.09 0.08 0.05 0.04 0.04 0.04 0.03 0.04 0.04 0.05 0.05 0.06 0.08 0.09 0.09 0.08 0.06 0.04 0.04 0.04 0.03 0.02 0.02 0.01 0.01 0.01
0.04 0.05 0.04 0.03 0.03 0.03 0.03 0.02 0.02 0.02 0.04 0.06 0.08 0.10 0.10 0.08 0.05 0.03 0.03 0.03 0.04 0.04 0.04 0.04 0.05 0.06 0.07 0.09 0.11 0.11 0.09 0.08 0.06 0.04 0.04 0.03 0.03 0.03
0.04 0.03 0.03 0.04 0.04 0.04 0.04 0.04 0.03 0.03 0.03 0.03 0.04 0.05 0.08 0.09 0.08 0.06 0.05 0.05 0.05 0.04 0.03 0.03 0.04 0.05 0.05 0.06 0.09 0.11 0.11 0.09 0.08 0.08 0.10 0.10 0.08 0.07
0.04 0.04 0.04 0.05 0.05 0.05 0.05 0.05 0.05 0.05 0.05 0.04 0.04 0.05 0.06 0.06 0.06 0.07 0.08 0.09 0.08 0.05 0.04 0.03 0.05 0.05 0.05 0.06 0.06 0.06 0.06 0.07 0.08 0.09 0.09 0.10 0.09 0.08
0.03 0.03 0.04 0.05 0.05 0.06 0.06 0.07 0.07 0.08 0.08 0.08 0.08 0.08 0.09 0.09 0.09 0.08 0.08 0.08 0.07 0.07 0.06 0.06 0.06 0.06 0.05 0.04 0.05 0.03 0.03 0.04 0.05 0.05 0.05 0.04 0.04 0.05
0.04 0.04 0.05 0.05 0.06 0.06 0.07 0.08 0.08 0.07 0.07 0.07 0.07 0.07 0.07 0.07 0.06 0.06 0.06 0.06 0.06 0.05 0.06 0.06 0.06 0.06 0.05 0.04 0.04 0.04 0.03 0.03 0.04 0.04 0.04 0.04 0.04 0.05
0.05 0.05 0.07 0.07 0.07 0.06 0.06 0.06 0.05 0.05 0.05 0.05 0.05 0.04 0.04 0.04 0.03 0.03 0.03 0.04 0.04 0.04 0.05 0.05 0.05 0.06 0.06 0.05 0.04 0.04 0.03 0.03 0.03 0.03 0.03 0.04 0.05 0.05
0.04 0.04 0.05 0.05 0.06 0.06 0.06 0.06 0.05 0.05 0.05 0.05 0.04 0.04 0.04 0.04 0.03 0.03 0.03 0.03 0.03 0.03 0.03 0.04 0.04 0.04 0.05 0.06 0.05 0.03 0.03 0.03 0.02 0.02 0.03 0.04 0.04 0.04
0.02 0.03 0.04 0.05 0.06 0.06 0.06 0.05 0.05 0.05 0.04 0.04 0.04 0.04 0.04 0.05 0.05 0.04 0.04 0.04 0.03 0.03 0.04 0.05 0.05 0.06 0.06 0.06 0.05 0.04 0.03 0.03 0.02 0.02 0.03 0.05 0.05 0.04
MSLP
1014.04 1014.27 1014.52 1014.76 1014.96 1015.09 1015.12 1015.07 1014.92 1014.69 1014.41 1014.10 1013.78 1013.49 1013.24 1013.05 1012.92 1012.85 1012.84 1012.87 1012.94 1013.03 1013.12 1013.19 1013.25 1013.26 1013.24 1013.16 1013.04 1012.88 1012.68 1012.45 1012.18 1011.90 1011.59 1011.28 1010.97 1010.68
1013.73 1013.94 1014.17 1014.39 1014.59 1014.74 1014.81 1014.81 1014.72 1014.57 1014.37 1014.13 1013.88 1013.64 1013.42 1013.24 1013.08 1012.96 1012.88 1012.83 1012.80 1012.80 1012.81 1012.83 1012.85 1012.86 1012.85 1012.82 1012.76 1012.66 1012.52 1012.34 1012.12 1011.85 1011.55 1011.22 1010.87 1010.53
1013.59 1013.75 1013.94 1014.14 1014.32 1014.46 1014.55 1014.59 1014.56 1014.48 1014.36 1014.21 1014.04 1013.86 1013.67 1013.49 1013.31 1013.14 1012.98 1012.83 1012.70 1012.58 1012.50 1012.43 1012.40 1012.38 1012.38 1012.38 1012.36 1012.33 1012.26 1012.14 1011.97 1011.75 1011.48 1011.16 1010.82 1010.45
1013.61 1013.73 1013.88 1014.04 1014.19 1014.32 1014.42 1014.48 1014.50 1014.48 1014.43 1014.35 1014.26 1014.14 1013.99 1013.82 1013.63 1013.41 1013.17 1012.93 1012.68 1012.46 1012.26 1012.10 1011.99 1011.92 1011.90 1011.90 1011.91 1011.91 1011.89 1011.83 1011.72 1011.55 1011.33 1011.05 1010.72 1010.36
1013.77 1013.86 1013.97 1014.09 1014.22 1014.33 1014.42 1014.49 1014.54 1014.57 1014.57 1014.56 1014.53 1014.46 1014.35 1014.20 1014.00 1013.75 1013.46 1013.13 1012.79 1012.46 1012.16 1011.90 1011.71 1011.57 1011.49 1011.46 1011.46 1011.47 1011.46 1011.43 1011.36 1011.23 1011.04 1010.80 1010.50 1010.16
1013.99 1014.06 1014.15 1014.25 1014.34 1014.43 1014.52 1014.59 1014.66 1014.72 1014.77 1014.80 1014.81 1014.78 1014.71 1014.58 1014.38 1014.12 1013.79 1013.41 1013.01 1012.60 1012.21 1011.87 1011.59 1011.37 1011.21 1011.12 1011.06 1011.03 1011.00 1010.96 1010.88 1010.76 1010.58 1010.36 1010.09 1009.78
1014.17 1014.24 1014.32 1014.41 1014.49 1014.58 1014.66 1014.73 1014.81 1014.88 1014.95 1015.00 1015.04 1015.04 1014.99 1014.88 1014.70 1014.44 1014.11 1013.71 1013.28 1012.83 1012.39 1011.98 1011.62 1011.32 1011.08 1010.89 1010.75 1010.64 1010.53 1010.42 1010.30 1010.14 1009.96 1009.73 1009.47 1009.17
1014.24 1014.32 1014.41 1014.50 1014.59 1014.68 1014.76 1014.84 1014.91 1014.99 1015.06 1015.12 1015.16 1015.17 1015.14 1015.04 1014.88 1014.64 1014.33 1013.95 1013.53 1013.08 1012.62 1012.18 1011.76 1011.39 1011.06 1010.77 1010.51 1010.28 1010.07 1009.86 1009.64 1009.42 1009.18 1008.92 1008.65 1008.35
1014.14 1014.23 1014.34 1014.46 1014.57 1014.68 1014.77 1014.86 1014.93 1015.00 1015.06 1015.11 1015.14 1015.14 1015.11 1015.02 1014.88 1014.67 1014.40 1014.06 1013.68 1013.26 1012.82 1012.37 1011.92 1011.49 1011.08 1010.69 1010.32 1009.96 1009.61 1009.28 1008.95 1008.63 1008.31 1008.00 1007.69 1007.38
1013.86 1013.98 1014.12 1014.27 1014.42 1014.56 1014.68 1014.77 1014.85 1014.90 1014.94 1014.96 1014.97 1014.94 1014.89 1014.81 1014.68 1014.50 1014.27 1013.99 1013.66 1013.30 1012.89 1012.47 1012.02 1011.56 1011.08 1010.61 1010.12 1009.64 1009.17 1008.70 1008.26 1007.83 1007.43 1007.05 1006.70 1006.36
1013.46 1013.61 1013.79 1013.98 1014.17 1014.34 1014.48 1014.59 1014.67 1014.71 1014.73 1014.71 1014.68 1014.62 1014.54 1014.44 1014.31 1014.15 1013.96 1013.73 1013.47 1013.16 1012.81 1012.42 1011.99 1011.52 1011.01 1010.47 1009.90 1009.32 1008.74 1008.17 1007.62 1007.10 1006.62 1006.18 1005.78 1005.41
1013.03 1013.21 1013.42 1013.65 1013.87 1014.07 1014.23 1014.36 1014.43 1014.46 1014.45 1014.40 1014.32 1014.22 1014.10 1013.97 1013.83 1013.68 1013.52 1013.33 1013.11 1012.86 1012.57 1012.22 1011.82 1011.35 1010.83 1010.25 1009.64 1008.99 1008.34 1007.69 1007.07 1006.48 1005.94 1005.45 1005.01 1004.61
1012.65 1012.86 1013.09 1013.33 1013.57 1013.79 1013.96 1014.08 1014.15 1014.17 1014.13 1014.05 1013.93 1013.79 1013.63 1013.47 1013.31 1013.15 1012.99 1012.83 1012.65 1012.44 1012.18 1011.88 1011.50 1011.06 1010.55 1009.96 1009.33 1008.66 1007.97 1007.29 1006.63 1006.02 1005.44 1004.92 1004.44 1004.00
1012.37 1012.58 1012.82 1013.06 1013.29 1013.50 1013.67 1013.78 1013.84 1013.84 1013.78 1013.67 1013.52 1013.35 1013.16 1012.97 1012.79 1012.62 1012.45 1012.29 1012.13 1011.94 1011.72 1011.44 1011.09 1010.67 1010.18 1009.61 1008.99 1008.33 1007.65 1006.97 1006.31 1005.69 1005.11 1004.57 1004.06 1003.58
1012.17 1012.37 1012.59 1012.81 1013.01 1013.19 1013.33 1013.43 1013.47 1013.45 1013.38 1013.26 1013.10 1012.91 1012.70 1012.49 1012.29 1012.10 1011.93 1011.77 1011.60 1011.43 1011.21 1010.95 1010.63 1010.23 1009.76 1009.22 1008.63 1008.00 1007.35 1006.70 1006.07 1005.47 1004.89 1004.34 1003.81 1003.28
1011.98 1012.17 1012.35 1012.51 1012.67 1012.80 1012.91 1012.98 1013.00 1012.98 1012.91 1012.79 1012.64 1012.45 1012.24 1012.03 1011.82 1011.62 1011.44 1011.27 1011.10 1010.92 1010.71 1010.45 1010.14 1009.76 1009.32 1008.81 1008.25 1007.66 1007.05 1006.45 1005.85 1005.28 1004.71 1004.15 1003.58 1003.00
1011.71 1011.86 1011.99 1012.10 1012.20 1012.28 1012.35 1012.39 1012.41 1012.39 1012.34 1012.24 1012.11 1011.94 1011.76 1011.56 1011.36 1011.16 1010.98 1010.80 1010.62 1010.43 1010.22 1009.96 1009.65 1009.28 1008.86 1008.37 1007.85 1007.29 1006.73 1006.16 1005.60 1005.04 1004.48 1003.91 1003.30 1002.64
1011.25 1011.37 1011.45 1011.50 1011.55 1011.59 1011.63 1011.67 1011.69 1011.69 1011.67 1011.61 1011.52 1011.39 1011.24 1011.07 1010.89 1010.71 1010.53 1010.35 1010.17 1009.97 1009.75 1009.49 1009.18 1008.81 1008.39 1007.92 1007.41 1006.88 1006.34 1005.80 1005.26 1004.71 1004.14 1003.53 1002.87 1002.14
1010.56 1010.63 1010.68 1010.70 1010.72 1010.75 1010.79 1010.84 1010.88 1010.92 1010.94 1010.94 1010.89 1010.82 1010.71 1010.57 1010.42 1010.26 1010.09 1009.92 1009.73 1009.53 1009.30 1009.03 1008.71 1008.34 1007.91 1007.44 1006.94 1006.42 1005.89 1005.35 1004.81 1004.25 1003.66 1003.02 1002.29 1001.48
1009.62 1009.69 1009.72 1009.74 1009.77 1009.82 1009.89 1009.98 1010.08 1010.17 1010.24 1010.29 1010.30 1010.26 1010.19 1010.08 1009.95 1009.81 1009.65 1009.49 1009.31 1009.10 1008.87 1008.59 1008.26 1007.87 1007.44 1006.96 1006.45 1005.91 1005.37 1004.82 1004.26 1003.68 1003.06 1002.37 1001.60 1000.71
1008.54 1008.61 1008.66 1008.72 1008.80 1008.91 1009.05 1009.20 1009.37 1009.52 1009.66 1009.75 1009.79 1009.78 1009.73 1009.64 1009.53 1009.39 1009.24 1009.07 1008.89 1008.69 1008.45 1008.17 1007.83 1007.44 1006.99 1006.49 1005.96 1005.40 1004.84 1004.26 1003.68 1003.07 1002.42 1001.69 1000.87 999.94
1007.42 1007.53 1007.64 1007.78 1007.95 1008.15 1008.38 1008.62 1008.86 1009.08 1009.26 1009.38 1009.44 1009.44 1009.38 1009.28 1009.16 1009.01 1008.85 1008.68 1008.50 1008.30 1008.06 1007.78 1007.44 1007.04 1006.58 1006.07 1005.51 1004.93 1004.34 1003.73 1003.12 1002.48 1001.81 1001.07 1000.23 999.27
1006.44 1006.61 1006.81 1007.05 1007.33 1007.65 1007.98 1008.31 1008.62 1008.89 1009.09 1009.22 1009.27 1009.24 1009.15 1009.02 1008.86 1008.69 1008.51 1008.33 1008.15 1007.95 1007.72 1007.44 1007.11 1006.71 1006.24 1005.72 1005.15 1004.55 1003.93 1003.30 1002.67 1002.02 1001.34 1000.59 999.76 998.82
Thickness
5762 5761 5759 5760 5760 5761 5759 5756 5747 5741 5745 5752 5755 5760 5759 5758 5755 5753 5753 5751 5749 5747 5744 5743 5741 5739 5738 5736 5734 5732 5731 5730 5728 5727 5726 5725 5724 5722
5760 5758 5757 5756 5756 5757 5757 5755 5752 5746 5742 5750 5752 5755 5755 5753 5751 5751 5750 5748 5746 5744 5742 5740 5738 5736 5734 5733 5731 5729 5728 5726 5725 5724 5722 5721 5720 5719
5755 5754 5752 5752 5751 5752 5752 5751 5748 5746 5740 5744 5748 5750 5750 5749 5747 5747 5745 5744 5743 5741 5739 5737 5735 5733 5731 5729 5728 5726 5724 5722 5721 5720 5718 5717 5715 5714
5751 5749 5747 5747 5746 5747 5746 5746 5745 5744 5739 5736 5740 5741 5742 5743 5742 5741 5741 5741 5740 5739 5736 5734 5732 5729 5727 5725 5723 5722 5720 5718 5716 5715 5714 5712 5711 5709
5747 5745 5743 5742 5741 5741 5740 5740 5739 5740 5737 5734 5734 5737 5737 5738 5736 5735 5736 5735 5734 5733 5731 5729 5727 5725 5723 5720 5719 5717 5715 5713 5711 5709 5708 5706 5705 5703
5743 5742 5740 5739 5737 5735 5735 5733 5733 5731 5731 5729 5729 5730 5730 5731 5728 5725 5725 5726 5726 5727 5726 5724 5722 5720 5718 5716 5714 5711 5709 5707 5705 5703 5702 5700 5699 5697
5738 5737 5736 5735 5733 5731 5730 5728 5726 5724 5723 5722 5721 5722 5722 5720 5719 5719 5716 5717 5719 5720 5718 5716 5715 5712 5711 5709 5707 5705 5703 5701 5699 5698 5696 5694 5692 5690
5731 5730 5730 5729 5728 5726 5724 5723 5721 5718 5716 5715 5715 5713 5714 5714 5713 5712 5709 5707 5706 5713 5709 5707 5708 5706 5705 5704 5702 5700 5698 5696 5694 5692 5690 5688 5686 5684
5724 5723 5723 5724 5721 5720 5718 5716 5714 5714 5712 5710 5708 5708 5708 5708 5706 5704 5703 5701 5701 5705 5702 5699 5701 5699 5700 5700 5697 5694 5691 5689 5687 5685 5683 5680 5678 5676
5718 5717 5715 5714 5714 5711 5709 5708 5707 5706 5705 5705 5704 5704 5704 5703 5701 5699 5698 5697 5698 5698 5696 5690 5692 5691 5693 5691 5690 5687 5684 5681 5679 5677 5675 5672 5670 5669
5712 5711 5709 5707 5705 5703 5701 5699 5698 5698 5699 5698 5698 5697 5697 5696 5694 5691 5688 5686 5684 5686 5687 5683 5682 5682 5682 5681 5680 5678 5676 5673 5671 5669 5667 5664 5662 5660
5705 5704 5702 5700 5696 5694 5692 5690 5688 5689 5689 5689 5689 5689 5688 5688 5686 5683 5680 5677 5675 5675 5677 5674 5673 5671 5669 5671 5670 5668 5666 5664 5662 5660 5658 5656 5654 5651
5696 5695 5693 5690 5687 5685 5683 5682 5682 5680 5680 5680 5680 5681 5680 5679 5678 5677 5675 5672 5668 5666 5668 5666 5663 5661 5658 5658 5658 5658 5657 5655 5653 5651 5649 5647 5645 5644
5687 5686 5684 5681 5678 5676 5674 5673 5673 5672 5671 5671 5671 5671 5671 5671 5670 5669 5668 5667 5665 5662 5661 5659 5655 5652 5649 5647 5646 5647 5647 5646 5644 5642 5640 5639 5636 5635
5679 5677 5674 5671 5668 5666 5664 5664 5663 5662 5662 5662 5662 5662 5663 5664 5662 5661 5660 5658 5656 5654 5653 5651 5647 5644 5641 5638 5637 5637 5637 5637 5636 5634 5632 5630 5629 5627
5669 5667 5664 5661 5658 5657 5656 5654 5654 5654 5654 5654 5654 5655 5655 5654 5653 5651 5648 5646 5643 5642 5643 5642 5640 5637 5633 5631 5629 5628 5628 5626 5627 5626 5624 5622 5622 5620
5658 5656 5654 5652 5650 5648 5647 5647 5646 5646 5645 5645 5645 5645 5644 5643 5642 5641 5639 5638 5634 5631 5630 5631 5631 5629 5627 5624 5620 5619 5618 5618 5618 5617 5615 5613 5613 5612
5648 5647 5645 5642 5641 5640 5639 5638 5638 5637 5637 5636 5635 5635 5634 5632 5632 5632 5631 5628 5625 5623 5622 5621 5620 5618 5615 5614 5613 5611 5608 5607 5608 5607 5606 5604 5604 5604
5639 5638 5637 5634 5632 5631 5630 5630 5630 5630 5629 5628 5626 5625 5624 5623 5622 5622 5620 5618 5616 5615 5614 5612 5611 5609 5605 5602 5602 5602 5600 5599 5599 5598 5597 5596 5595 5595
5632 5630 5628 5626 5624 5622 5622 5621 5620 5620 5620 5619 5618 5616 5615 5614 5613 5612 5610 5609 5607 5605 5604 5602 5601 5599 5597 5595 5594 5593 5593 5592 5590 5589 5589 5588 5587 5587
5624 5622 5619 5618 5616 5615 5614 5612 5611 5610 5609 5609 5609 5607 5606 5605 5603 5602 5601 5598 5597 5595 5593 5592 5592 5592 5591 5589 5586 5584 5584 5585 5584 5582 5581 5579 5578 5577
5617 5615 5612 5610 5607 5606 5604 5604 5603 5602 5600 5600 5599 5598 5596 5595 5593 5592 5591 5589 5587 5586 5585 5585 5585 5584 5582 5579 5577 5576 5576 5577 5576 5576 5574 5573 5569 5567
5609 5607 5605 5602 5600 5598 5596 5594 5593 5592 5591 5590 5589 5587 5586 5586 5585 5584 5582 5581 5579 5577 5577 5576 5575 5574 5572 5571 5569 5568 5568 5568 5568 5567 5566 5565 5564 5562